AXI650 KFRG-MMHO

Flight info

Callsign AXI650
Flight time N/A
Altitude 36000
Route DCT
Aircraft GLF6/M-SDE3FGHIRWY/LB1

Departure

Time N/A
Airport Republic Airport (KFRG)

Arrival

Time 2026-04-23 18:11
Airport General Ignacio L. Pesqueira International Airport (MMHO)
Time Latitude Longitude Altitude Speed Heading
2026-04-23 15:38 38.66213 -91.95128 35726 ft 501 kts 258°
2026-04-23 15:38 38.65584 -91.99506 35720 ft 501 kts 258°
2026-04-23 15:39 38.64316 -92.08295 35712 ft 501 kts 258°
2026-04-23 15:39 38.63049 -92.17061 35707 ft 501 kts 258°
2026-04-23 15:40 38.61787 -92.25797 35704 ft 501 kts 258°
2026-04-23 15:40 38.60526 -92.34477 35693 ft 501 kts 258°
2026-04-23 15:41 38.59246 -92.43241 35700 ft 500 kts 258°
2026-04-23 15:41 38.57968 -92.51949 35707 ft 501 kts 258°
2026-04-23 15:42 38.56679 -92.60674 35705 ft 500 kts 258°
2026-04-23 15:42 38.55378 -92.69440 35707 ft 500 kts 258°
2026-04-23 15:43 38.54076 -92.78164 35699 ft 500 kts 258°
2026-04-23 15:43 38.52768 -92.86885 35690 ft 500 kts 258°
2026-04-23 15:44 38.51448 -92.95634 35688 ft 501 kts 258°
2026-04-23 15:44 38.50123 -93.04374 35694 ft 501 kts 258°
2026-04-23 15:45 38.48791 -93.13112 35696 ft 501 kts 258°
2026-04-23 15:45 38.47459 -93.21809 35694 ft 501 kts 258°
2026-04-23 15:46 38.46119 -93.30504 35692 ft 501 kts 258°
2026-04-23 15:46 38.44763 -93.39267 35687 ft 500 kts 258°
2026-04-23 15:47 38.43413 -93.47937 35686 ft 500 kts 258°
2026-04-23 15:47 38.42056 -93.56615 35686 ft 500 kts 258°
2026-04-23 15:48 38.40688 -93.65314 35670 ft 500 kts 257°
2026-04-23 15:48 38.39309 -93.74046 35670 ft 500 kts 257°
2026-04-23 15:49 38.37931 -93.82716 35669 ft 501 kts 257°
2026-04-23 15:49 38.36549 -93.91377 35658 ft 501 kts 257°
2026-04-23 15:50 38.35148 -94.00111 35642 ft 500 kts 257°
2026-04-23 15:50 38.33755 -94.08755 35644 ft 500 kts 257°
2026-04-23 15:51 38.32353 -94.17406 35641 ft 500 kts 257°
2026-04-23 15:51 38.30941 -94.26082 35638 ft 499 kts 257°
2026-04-23 15:52 38.29532 -94.34693 35636 ft 499 kts 257°
2026-04-23 15:52 38.28113 -94.43326 35636 ft 499 kts 257°
2026-04-23 15:53 38.26718 -94.51940 35635 ft 499 kts 257°
2026-04-23 15:53 38.25364 -94.60606 35625 ft 498 kts 257°
2026-04-23 15:54 38.24001 -94.69264 35624 ft 499 kts 257°
2026-04-23 15:54 38.22631 -94.77933 35606 ft 498 kts 257°
2026-04-23 15:55 38.21254 -94.86607 35599 ft 498 kts 257°
2026-04-23 15:55 38.19877 -94.95228 35603 ft 498 kts 257°
2026-04-23 15:56 38.18497 -95.03830 35601 ft 497 kts 257°
2026-04-23 15:56 38.17114 -95.12404 35601 ft 497 kts 257°
2026-04-23 15:57 38.15718 -95.21011 35593 ft 496 kts 257°
2026-04-23 15:57 38.14326 -95.29558 35598 ft 496 kts 257°
2026-04-23 15:58 38.12916 -95.38167 35601 ft 497 kts 257°
2026-04-23 15:58 38.11506 -95.46737 35597 ft 496 kts 257°
2026-04-23 15:59 38.10096 -95.55268 35585 ft 495 kts 257°
2026-04-23 15:59 38.08678 -95.63805 35597 ft 495 kts 257°
2026-04-23 16:00 38.07259 -95.72308 35587 ft 494 kts 256°
2026-04-23 16:00 38.05826 -95.80851 35591 ft 494 kts 256°
2026-04-23 16:01 38.04387 -95.89395 35579 ft 494 kts 256°
2026-04-23 16:01 38.02948 -95.97896 35567 ft 493 kts 256°
2026-04-23 16:02 38.01501 -96.06406 35564 ft 493 kts 256°
2026-04-23 16:02 38.00055 -96.14874 35567 ft 493 kts 256°
2026-04-23 16:03 37.98606 -96.23316 35563 ft 495 kts 256°
2026-04-23 16:03 37.97144 -96.31794 35560 ft 493 kts 256°
2026-04-23 16:04 37.95673 -96.40292 35573 ft 492 kts 256°
2026-04-23 16:04 37.94208 -96.48708 35570 ft 492 kts 256°
2026-04-23 16:05 37.92979 -96.55746 35554 ft 491 kts 256°
2026-04-23 16:05 37.91258 -96.65554 35567 ft 491 kts 256°
2026-04-23 16:06 37.89767 -96.74007 35586 ft 491 kts 256°
2026-04-23 16:06 37.88273 -96.82446 35584 ft 491 kts 256°
2026-04-23 16:07 37.86778 -96.90848 35581 ft 491 kts 256°
2026-04-23 16:07 37.85275 -96.99255 35576 ft 491 kts 256°
2026-04-23 16:08 37.83764 -97.07673 35561 ft 492 kts 256°
2026-04-23 16:08 37.82246 -97.16103 35559 ft 491 kts 256°
2026-04-23 16:09 37.80732 -97.24461 35558 ft 490 kts 256°
2026-04-23 16:09 37.79207 -97.32845 35553 ft 489 kts 256°
2026-04-23 16:10 37.77684 -97.41188 35549 ft 489 kts 256°
2026-04-23 16:10 37.76156 -97.49517 35546 ft 488 kts 256°
2026-04-23 16:11 37.74451 -97.57773 35512 ft 486 kts 246°
2026-04-23 16:11 37.72681 -97.61423 35563 ft 486 kts 235°
2026-04-23 16:11 37.70687 -97.64851 35533 ft 487 kts 235°
2026-04-23 16:12 37.66640 -97.71714 35543 ft 487 kts 234°
2026-04-23 16:12 37.62568 -97.78587 35542 ft 488 kts 234°
2026-04-23 16:13 37.58513 -97.85418 35539 ft 487 kts 234°
2026-04-23 16:13 37.52436 -97.95624 35529 ft 487 kts 234°
2026-04-23 16:14 37.48356 -98.02460 35526 ft 486 kts 234°
2026-04-23 16:14 37.44292 -98.09255 35530 ft 487 kts 234°
2026-04-23 16:15 37.40197 -98.16089 35533 ft 487 kts 234°
2026-04-23 16:15 37.36129 -98.22863 35523 ft 486 kts 234°
2026-04-23 16:16 37.32065 -98.29617 35522 ft 485 kts 235°
2026-04-23 16:16 37.28007 -98.36347 35523 ft 486 kts 234°
2026-04-23 16:17 37.23941 -98.43076 35517 ft 485 kts 235°
2026-04-23 16:17 37.19847 -98.49837 35527 ft 486 kts 235°
2026-04-23 16:18 37.15791 -98.56524 35526 ft 485 kts 235°
2026-04-23 16:18 37.11694 -98.63265 35517 ft 485 kts 235°
2026-04-23 16:19 37.07603 -98.69980 35519 ft 484 kts 235°
2026-04-23 16:19 37.03490 -98.76720 35526 ft 484 kts 234°
2026-04-23 16:20 36.99406 -98.83399 35527 ft 485 kts 234°
2026-04-23 16:20 36.95308 -98.90086 35545 ft 483 kts 235°
2026-04-23 16:21 36.91220 -98.96744 35538 ft 484 kts 235°
2026-04-23 16:21 36.87126 -99.03401 35544 ft 484 kts 234°
2026-04-23 16:22 36.83033 -99.10041 35544 ft 484 kts 235°
2026-04-23 16:22 36.78928 -99.16687 35540 ft 484 kts 235°
2026-04-23 16:23 36.74806 -99.23347 35543 ft 484 kts 235°
2026-04-23 16:23 36.70688 -99.29990 35536 ft 483 kts 235°
2026-04-23 16:24 36.66600 -99.36570 35548 ft 483 kts 235°
2026-04-23 16:24 36.62499 -99.43159 35548 ft 482 kts 235°
2026-04-23 16:25 36.58393 -99.49741 35559 ft 483 kts 235°
2026-04-23 16:25 36.54277 -99.56327 35568 ft 481 kts 235°
2026-04-23 16:26 36.50206 -99.62829 35578 ft 482 kts 235°
2026-04-23 16:26 36.46066 -99.69429 35587 ft 481 kts 234°
2026-04-23 16:27 36.41974 -99.75939 35589 ft 482 kts 235°
2026-04-23 16:27 36.37857 -99.82478 35583 ft 481 kts 234°
2026-04-23 16:28 36.33760 -99.89020 35579 ft 482 kts 236°
2026-04-23 16:28 36.29783 -99.95723 35585 ft 481 kts 236°
2026-04-23 16:29 36.25818 -100.02382 35593 ft 481 kts 236°
2026-04-23 16:29 36.21840 -100.09049 35590 ft 481 kts 236°
2026-04-23 16:30 36.17875 -100.15681 35594 ft 480 kts 236°
2026-04-23 16:30 36.13909 -100.22302 35595 ft 480 kts 236°
2026-04-23 16:31 36.09968 -100.28870 35587 ft 479 kts 237°
2026-04-23 16:31 36.05978 -100.35505 35590 ft 480 kts 237°
2026-04-23 16:32 36.01998 -100.42110 35588 ft 480 kts 237°
2026-04-23 16:32 35.98016 -100.48711 35585 ft 479 kts 236°
2026-04-23 16:33 35.94042 -100.55280 35596 ft 479 kts 237°
2026-04-23 16:33 35.90079 -100.61821 35606 ft 480 kts 237°
2026-04-23 16:34 35.86076 -100.68414 35634 ft 479 kts 236°
2026-04-23 16:34 35.82087 -100.74973 35642 ft 479 kts 236°
2026-04-23 16:35 35.78095 -100.81524 35649 ft 479 kts 236°
2026-04-23 16:35 35.74071 -100.88118 35655 ft 478 kts 236°
2026-04-23 16:36 35.70084 -100.94633 35657 ft 478 kts 236°
2026-04-23 16:36 35.66069 -101.01185 35660 ft 478 kts 236°
2026-04-23 16:37 35.62106 -101.07639 35667 ft 477 kts 236°
2026-04-23 16:37 35.58099 -101.14154 35666 ft 477 kts 236°
2026-04-23 16:38 35.54092 -101.20657 35666 ft 477 kts 236°
2026-04-23 16:38 35.50090 -101.27137 35672 ft 476 kts 236°
2026-04-23 16:39 35.46109 -101.33572 35677 ft 477 kts 237°
2026-04-23 16:39 35.42103 -101.40038 35681 ft 476 kts 236°
2026-04-23 16:40 35.38104 -101.46477 35685 ft 475 kts 237°
2026-04-23 16:40 35.34093 -101.52927 35691 ft 475 kts 237°
2026-04-23 16:41 35.30081 -101.59364 35685 ft 476 kts 237°
2026-04-23 16:41 35.26070 -101.65788 35702 ft 478 kts 236°
2026-04-23 16:42 35.22006 -101.72296 35723 ft 478 kts 237°
2026-04-23 16:42 35.17956 -101.78785 35716 ft 478 kts 236°
2026-04-23 16:43 35.13950 -101.85194 35726 ft 476 kts 237°
2026-04-23 16:43 35.09897 -101.91667 35728 ft 477 kts 237°
2026-04-23 16:44 35.05876 -101.98073 35734 ft 477 kts 237°
2026-04-23 16:44 35.01825 -102.04517 35741 ft 479 kts 237°
2026-04-23 16:45 34.97796 -102.10918 35757 ft 477 kts 237°
2026-04-23 16:45 34.93748 -102.17333 35739 ft 477 kts 237°
2026-04-23 16:46 34.89703 -102.23729 35755 ft 475 kts 237°
2026-04-23 16:46 34.85672 -102.30100 35756 ft 475 kts 237°
2026-04-23 16:47 34.81660 -102.36425 35764 ft 473 kts 237°
2026-04-23 16:47 34.77638 -102.42750 35775 ft 473 kts 238°
2026-04-23 16:48 34.73591 -102.49106 35769 ft 473 kts 238°
2026-04-23 16:48 34.69564 -102.55423 35784 ft 471 kts 238°
2026-04-23 16:49 34.65571 -102.61671 35778 ft 469 kts 238°
2026-04-23 16:49 34.61572 -102.67922 35794 ft 471 kts 238°
2026-04-23 16:50 34.57574 -102.74158 35795 ft 470 kts 238°
2026-04-23 16:50 34.53551 -102.80421 35797 ft 469 kts 238°
2026-04-23 16:51 34.49544 -102.86650 35789 ft 468 kts 238°
2026-04-23 16:51 34.45527 -102.92880 35788 ft 469 kts 238°
2026-04-23 16:52 34.41522 -102.99084 35790 ft 467 kts 238°
2026-04-23 16:52 34.37532 -103.05252 35788 ft 467 kts 238°
2026-04-23 16:53 34.33523 -103.11444 35792 ft 466 kts 238°
2026-04-23 16:53 34.29530 -103.17593 35790 ft 466 kts 238°
2026-04-23 16:54 34.25546 -103.23723 35791 ft 464 kts 238°
2026-04-23 16:54 34.21549 -103.29859 35803 ft 465 kts 239°
2026-04-23 16:55 34.17579 -103.35944 35809 ft 463 kts 239°
2026-04-23 16:55 34.13579 -103.42069 35816 ft 462 kts 239°
2026-04-23 16:56 34.09627 -103.48103 35833 ft 461 kts 239°
2026-04-23 16:56 34.05645 -103.54175 35817 ft 460 kts 239°
2026-04-23 16:57 34.01687 -103.60203 35824 ft 460 kts 239°
2026-04-23 16:57 33.97721 -103.66232 35848 ft 460 kts 238°
2026-04-23 16:58 33.93735 -103.72279 35851 ft 461 kts 239°
2026-04-23 16:58 33.89727 -103.78352 35846 ft 460 kts 239°
2026-04-23 16:59 33.85744 -103.84377 35837 ft 457 kts 239°
2026-04-23 16:59 33.81779 -103.90363 35837 ft 457 kts 239°
2026-04-23 17:00 33.77812 -103.96342 35831 ft 458 kts 239°
2026-04-23 17:00 33.73848 -104.02308 35831 ft 456 kts 239°
2026-04-23 17:01 33.69885 -104.08261 35825 ft 456 kts 239°
2026-04-23 17:01 33.65916 -104.14217 35822 ft 455 kts 239°
2026-04-23 17:02 33.61963 -104.20134 35823 ft 456 kts 239°
2026-04-23 17:02 33.57998 -104.26062 35823 ft 456 kts 239°
2026-04-23 17:03 33.54037 -104.31974 35815 ft 456 kts 239°
2026-04-23 17:03 33.50053 -104.37912 35805 ft 455 kts 239°
2026-04-23 17:04 33.46105 -104.43787 35803 ft 454 kts 240°
2026-04-23 17:04 33.42125 -104.49698 35792 ft 455 kts 240°
2026-04-23 17:05 33.38170 -104.55563 35767 ft 454 kts 239°
2026-04-23 17:05 33.34197 -104.61370 35750 ft 458 kts 236°
2026-04-23 17:06 33.31664 -104.63819 35801 ft 473 kts 226°
2026-04-23 17:06 33.28933 -104.66118 35801 ft 473 kts 225°
2026-04-23 17:06 33.23534 -104.70620 35828 ft 474 kts 225°
2026-04-23 17:07 33.18152 -104.75093 35836 ft 468 kts 225°
2026-04-23 17:07 33.12785 -104.79546 35848 ft 471 kts 225°
2026-04-23 17:08 33.07352 -104.84049 35858 ft 474 kts 225°
2026-04-23 17:08 33.01981 -104.88491 35870 ft 471 kts 225°
2026-04-23 17:09 32.96586 -104.92949 35887 ft 473 kts 225°
2026-04-23 17:09 32.91133 -104.97446 35909 ft 474 kts 225°
2026-04-23 17:10 32.85695 -105.01923 35901 ft 472 kts 225°
2026-04-23 17:10 32.80319 -105.06346 35910 ft 473 kts 225°
2026-04-23 17:11 32.74875 -105.10817 35900 ft 475 kts 225°
2026-04-23 17:11 32.69422 -105.15286 35908 ft 472 kts 225°
2026-04-23 17:12 32.64006 -105.19720 35928 ft 473 kts 225°
2026-04-23 17:12 32.58624 -105.24119 35933 ft 471 kts 225°
2026-04-23 17:13 32.53188 -105.28554 35946 ft 475 kts 225°
2026-04-23 17:13 32.47748 -105.32988 35932 ft 474 kts 225°
2026-04-23 17:14 32.42332 -105.37395 35932 ft 475 kts 225°
2026-04-23 17:14 32.36868 -105.41834 35933 ft 473 kts 225°
2026-04-23 17:15 32.31427 -105.46248 35923 ft 475 kts 225°
2026-04-23 17:15 32.26006 -105.50639 35910 ft 473 kts 225°
2026-04-23 17:16 32.20548 -105.55054 35925 ft 475 kts 225°
2026-04-23 17:16 32.15090 -105.59463 35918 ft 476 kts 225°
2026-04-23 17:17 32.09637 -105.63860 35932 ft 473 kts 224°
2026-04-23 17:17 32.04191 -105.68245 35954 ft 477 kts 224°
2026-04-23 17:18 31.99114 -105.73083 35955 ft 451 kts 242°
2026-04-23 17:18 31.97686 -105.76283 35950 ft 438 kts 254°
2026-04-23 17:19 31.95539 -105.83011 35952 ft 437 kts 256°
2026-04-23 17:19 31.93473 -105.89715 35934 ft 434 kts 256°
2026-04-23 17:20 31.91405 -105.96431 35947 ft 436 kts 256°
2026-04-23 17:21 31.87287 -106.09786 35932 ft 436 kts 256°
2026-04-23 17:21 31.84192 -106.19791 35924 ft 434 kts 255°
2026-04-23 17:22 31.80092 -106.29284 35919 ft 463 kts 231°
2026-04-23 17:23 31.71975 -106.35944 35910 ft 473 kts 225°
2026-04-23 17:24 31.63985 -106.42661 35881 ft 457 kts 235°
2026-04-23 17:24 31.62130 -106.45643 35952 ft 446 kts 245°
2026-04-23 17:24 31.58888 -106.51812 35913 ft 445 kts 245°
2026-04-23 17:25 31.54059 -106.61107 35916 ft 445 kts 246°
2026-04-23 17:26 31.47625 -106.73465 35945 ft 445 kts 245°
2026-04-23 17:27 31.42781 -106.82748 35938 ft 445 kts 245°
2026-04-23 17:27 31.39526 -106.88968 35946 ft 446 kts 245°
2026-04-23 17:28 31.36258 -106.95198 35937 ft 447 kts 245°
2026-04-23 17:28 31.32987 -107.01427 35927 ft 447 kts 245°
2026-04-23 17:29 31.29714 -107.07649 35920 ft 447 kts 245°
2026-04-23 17:30 31.25360 -107.15910 35928 ft 447 kts 245°
2026-04-23 17:30 31.19913 -107.26218 35929 ft 447 kts 245°
2026-04-23 17:31 31.16645 -107.32394 35920 ft 447 kts 244°
2026-04-23 17:31 31.13358 -107.38592 35925 ft 448 kts 244°
2026-04-23 17:32 31.10066 -107.44788 35924 ft 446 kts 244°
2026-04-23 17:32 31.06793 -107.50940 35922 ft 446 kts 244°
2026-04-23 17:33 31.03518 -107.57087 35924 ft 447 kts 244°
2026-04-23 17:33 31.00223 -107.63264 35936 ft 447 kts 244°
2026-04-23 17:34 30.96899 -107.69481 35965 ft 447 kts 244°
2026-04-23 17:35 30.91980 -107.78663 35985 ft 449 kts 244°
2026-04-23 17:35 30.87009 -107.87924 35991 ft 447 kts 243°
2026-04-23 17:36 30.83696 -107.94084 35992 ft 446 kts 243°
2026-04-23 17:36 30.80344 -108.00306 36006 ft 448 kts 244°
2026-04-23 17:37 30.77028 -108.06451 36007 ft 447 kts 243°
2026-04-23 17:38 30.72075 -108.15612 36021 ft 448 kts 244°
2026-04-23 17:38 30.68708 -108.21830 36016 ft 447 kts 243°
2026-04-23 17:39 30.65385 -108.27953 36016 ft 448 kts 243°
2026-04-23 17:39 30.62080 -108.34035 36036 ft 448 kts 243°
2026-04-23 17:40 30.58754 -108.40145 36037 ft 447 kts 243°
2026-04-23 17:40 30.55444 -108.46219 36034 ft 448 kts 243°
2026-04-23 17:41 30.52093 -108.52357 36032 ft 448 kts 243°
2026-04-23 17:41 30.47110 -108.61465 36040 ft 448 kts 243°
2026-04-23 17:42 30.42100 -108.70607 36048 ft 449 kts 243°
2026-04-23 17:43 30.38729 -108.76743 36044 ft 450 kts 243°
2026-04-23 17:43 30.35399 -108.82793 36072 ft 440 kts 243°
2026-04-23 17:44 30.32129 -108.88731 36068 ft 435 kts 243°
2026-04-23 17:44 30.30492 -108.91699 35746 ft 438 kts 243°
2026-04-23 17:44 30.27203 -108.97656 34803 ft 440 kts 242°
2026-04-23 17:45 30.25551 -109.00644 34316 ft 442 kts 243°
2026-04-23 17:45 30.22233 -109.06643 33324 ft 446 kts 242°
2026-04-23 17:45 30.20555 -109.09669 32851 ft 449 kts 242°
2026-04-23 17:46 30.17163 -109.15785 31838 ft 457 kts 242°
2026-04-23 17:46 30.15462 -109.18847 31332 ft 459 kts 242°
2026-04-23 17:46 30.13738 -109.21950 30815 ft 460 kts 242°
2026-04-23 17:47 30.12025 -109.25028 30301 ft 448 kts 241°
2026-04-23 17:47 30.10366 -109.28003 29802 ft 433 kts 242°
2026-04-23 17:47 30.07222 -109.33645 28895 ft 410 kts 242°
2026-04-23 17:48 30.05702 -109.36373 28452 ft 406 kts 242°
2026-04-23 17:48 30.04170 -109.39120 28011 ft 403 kts 242°
2026-04-23 17:48 30.02663 -109.41818 27576 ft 401 kts 242°
2026-04-23 17:48 30.01165 -109.44499 27139 ft 397 kts 242°
2026-04-23 17:49 29.99669 -109.47171 26703 ft 394 kts 242°
2026-04-23 17:49 29.98198 -109.49803 26273 ft 391 kts 242°
2026-04-23 17:49 29.96716 -109.52448 25840 ft 391 kts 241°
2026-04-23 17:49 29.95257 -109.55052 25408 ft 388 kts 242°
2026-04-23 17:50 29.93808 -109.57636 24977 ft 385 kts 242°
2026-04-23 17:50 29.90925 -109.62782 24118 ft 379 kts 241°
2026-04-23 17:50 29.89495 -109.65330 23692 ft 378 kts 240°
2026-04-23 17:51 29.88078 -109.67853 23287 ft 374 kts 241°
2026-04-23 17:51 29.86656 -109.70385 22869 ft 374 kts 241°
2026-04-23 17:51 29.83865 -109.75346 22055 ft 371 kts 240°
2026-04-23 17:52 29.82452 -109.77860 21643 ft 370 kts 240°
2026-04-23 17:52 29.79680 -109.82783 20836 ft 368 kts 240°
2026-04-23 17:52 29.78294 -109.85239 20428 ft 367 kts 240°
2026-04-23 17:53 29.75513 -109.90166 19620 ft 366 kts 240°
2026-04-23 17:53 29.74129 -109.92618 19219 ft 365 kts 239°
2026-04-23 17:53 29.72744 -109.95068 18814 ft 365 kts 239°
2026-04-23 17:54 29.71382 -109.97475 18416 ft 364 kts 239°
2026-04-23 17:54 29.69992 -109.99926 18008 ft 363 kts 239°
2026-04-23 17:54 29.67243 -110.04774 17201 ft 361 kts 239°
2026-04-23 17:55 29.64497 -110.09609 16393 ft 360 kts 239°
2026-04-23 17:55 29.63135 -110.12006 15991 ft 358 kts 238°
2026-04-23 17:55 29.61772 -110.14401 15593 ft 357 kts 238°
2026-04-23 17:56 29.60414 -110.16788 15180 ft 356 kts 238°
2026-04-23 17:56 29.57723 -110.21511 14383 ft 355 kts 238°
2026-04-23 17:56 29.56375 -110.23876 13976 ft 354 kts 238°
2026-04-23 17:57 29.55035 -110.26224 13581 ft 352 kts 238°
2026-04-23 17:57 29.53682 -110.28595 13188 ft 351 kts 238°
2026-04-23 17:57 29.51007 -110.33278 12413 ft 349 kts 238°
2026-04-23 17:58 29.49679 -110.35600 12020 ft 347 kts 238°
2026-04-23 17:58 29.48370 -110.37888 11645 ft 345 kts 238°
2026-04-23 17:58 29.47054 -110.40187 11266 ft 344 kts 238°
2026-04-23 17:58 29.45731 -110.42499 10890 ft 343 kts 238°
2026-04-23 17:59 29.44452 -110.44730 10472 ft 329 kts 238°
2026-04-23 17:59 29.43236 -110.46848 10073 ft 300 kts 238°
2026-04-23 17:59 29.42135 -110.48767 9853 ft 287 kts 238°
2026-04-23 17:59 29.41039 -110.50680 9569 ft 288 kts 238°
2026-04-23 18:00 29.39943 -110.52590 9219 ft 284 kts 238°
2026-04-23 18:00 29.38862 -110.54473 8894 ft 281 kts 238°
2026-04-23 18:00 29.37804 -110.56313 8590 ft 279 kts 238°
2026-04-23 18:00 29.36729 -110.58170 8455 ft 276 kts 237°
2026-04-23 18:01 29.35705 -110.59936 8562 ft 256 kts 238°
2026-04-23 18:01 29.34753 -110.61577 8529 ft 235 kts 238°
2026-04-23 18:01 29.33884 -110.63075 8502 ft 217 kts 238°
2026-04-23 18:01 29.33072 -110.64474 8475 ft 205 kts 238°
2026-04-23 18:02 29.32557 -110.65363 8467 ft 201 kts 237°
2026-04-23 18:02 29.31542 -110.67112 8454 ft 197 kts 237°
2026-04-23 18:02 29.30780 -110.68426 8449 ft 196 kts 237°
2026-04-23 18:02 29.30016 -110.69741 8450 ft 197 kts 237°
2026-04-23 18:03 29.29263 -110.71037 8455 ft 197 kts 237°
2026-04-23 18:03 29.28503 -110.72347 8453 ft 196 kts 237°
2026-04-23 18:03 29.27747 -110.73646 8449 ft 197 kts 237°
2026-04-23 18:03 29.26994 -110.74940 8446 ft 196 kts 237°
2026-04-23 18:04 29.26227 -110.76260 8318 ft 199 kts 237°
2026-04-23 18:04 29.25480 -110.77544 8111 ft 190 kts 237°
2026-04-23 18:04 29.24755 -110.78790 7821 ft 185 kts 237°
2026-04-23 18:04 29.24046 -110.80003 7535 ft 181 kts 235°
2026-04-23 18:05 29.23269 -110.81110 7251 ft 177 kts 230°
2026-04-23 18:05 29.22485 -110.82194 6958 ft 174 kts 230°
2026-04-23 18:05 29.21695 -110.83240 6632 ft 174 kts 228°
2026-04-23 18:05 29.20901 -110.84281 6322 ft 170 kts 229°
2026-04-23 18:06 29.20149 -110.85282 5963 ft 160 kts 229°
2026-04-23 18:06 29.19513 -110.86234 5588 ft 147 kts 233°
2026-04-23 18:06 29.18952 -110.87189 5204 ft 143 kts 235°
2026-04-23 18:06 29.18420 -110.88138 4812 ft 141 kts 236°
2026-04-23 18:07 29.17911 -110.89097 4481 ft 141 kts 237°
2026-04-23 18:07 29.17405 -110.90055 4222 ft 143 kts 237°
2026-04-23 18:07 29.16903 -110.91029 3925 ft 144 kts 238°
2026-04-23 18:07 29.16406 -110.92010 3616 ft 143 kts 238°
2026-04-23 18:08 29.16074 -110.92673 3423 ft 144 kts 238°
2026-04-23 18:08 29.15409 -110.93983 3010 ft 143 kts 237°
2026-04-23 18:08 29.14895 -110.94958 2691 ft 143 kts 237°
2026-04-23 18:08 29.14370 -110.95917 2365 ft 142 kts 236°
2026-04-23 18:09 29.13844 -110.96880 2093 ft 141 kts 236°
2026-04-23 18:09 29.13330 -110.97823 1865 ft 138 kts 236°
2026-04-23 18:09 29.12828 -110.98745 1621 ft 133 kts 236°
2026-04-23 18:09 29.12348 -110.99631 1462 ft 132 kts 236°
2026-04-23 18:10 29.11857 -111.00530 1298 ft 131 kts 236°
2026-04-23 18:10 29.11379 -111.01411 1161 ft 132 kts 237°
2026-04-23 18:10 29.10891 -111.02316 1026 ft 133 kts 237°
2026-04-23 18:10 29.10414 -111.03214 855 ft 133 kts 238°
2026-04-23 18:11 29.09938 -111.04118 697 ft 133 kts 238°
2026-04-23 18:11 29.09472 -111.04991 637 ft 112 kts 238°
2026-04-23 18:11 29.09176 -111.05544 629 ft 60 kts 239°
2026-04-23 18:11 29.09078 -111.05664 631 ft 9 kts 129°
2026-04-23 18:12 29.09074 -111.05588 631 ft 10 kts 89°
2026-04-23 18:12 29.09076 -111.05501 631 ft 11 kts 89°
2026-04-23 18:12 29.09078 -111.05402 631 ft 13 kts 88°
2026-04-23 18:12 29.09110 -111.05305 633 ft 12 kts 59°
2026-04-23 18:13 29.09155 -111.05219 633 ft 12 kts 59°
2026-04-23 18:13 29.09199 -111.05136 634 ft 11 kts 59°
2026-04-23 18:13 29.09239 -111.05061 635 ft 10 kts 59°
2026-04-23 18:13 29.09279 -111.04987 637 ft 11 kts 58°
2026-04-23 18:14 29.09313 -111.04921 638 ft 4 kts 68°
2026-04-23 18:14 29.09314 -111.04889 638 ft 3 kts 94°
2026-04-23 18:14 29.09312 -111.04863 639 ft 2 kts 94°
2026-04-23 18:14 29.09312 -111.04860 639 ft 0 kts 94°